Regional Weather Roundup
Issued by NWS

Home | Current Version | Previous Version | Graphics & Text | Print | Product List | Glossary On
Versions: 1 2 3 4 5 6 7 8 9 10 11 12 13 14 15 16 17 18 19 20 21 22 23 24 25 26 27 28 29 30 31 32 33 34 35 36 37 38 39 40 41 42 43 44 45 46 47 48 49 50
000
ASUS45 KBOU 211707
RWRCO

WEATHER ROUNDUP FOR COLORADO
NATIONAL WEATHER SERVICE DENVER/BOULDER CO
1100 AM MDT SAT OCT 21 2017

NOTE: "FAIR" INDICATES FEW OR NO CLOUDS BELOW 12000 FEET WITH NO
SIGNIFICANT WEATHER AND/OR OBSTRUCTIONS TO VISIBILITY.

COZ001>005-013-030-031-211800-
...NORTHWEST COLORADO...

CITY           SKY/WX    TMP DP  RH WIND       PRES   REMARKS
CRAIG          FAIR      31  25  78 CALM      30.18R
HAYDEN         FAIR      32  22  66 CALM      30.18R
MEEKER         FAIR      33  29  85 CALM      30.18R
RABBIT EARS PA SNOW      18  14  86 W10G16    30.10R VSB 1/2 WCI   6
STEAMBOAT SPGS FAIR      31  24  76 CALM      30.16R
WALDEN         NOT AVBL
$$

COZ006>008-011-211800-
...WEST CENTRAL VALLEYS...

CITY           SKY/WX    TMP DP  RH WIND       PRES   REMARKS
GRAND JUNCTION FAIR      48  21  34 W5        30.18R
MONTROSE       FAIR      44  12  27 NE3       30.19R
EAGLE          PTSUNNY   39  18  42 CALM      30.18R
RIFLE          FAIR      43  25  49 CALM      30.19R
DELTA          FAIR      49  18  28 CALM      30.17R
NUCLA          FAIR      46  10  23 W8        30.20R
$$

COZ017>023-064>068-211800-
...SOUTHWEST COLORADO...

CITY           SKY/WX    TMP DP  RH WIND       PRES   REMARKS
DURANGO        FAIR      50   9  19 SW21G29   30.06R
CORTEZ         FAIR      48   8  19 NW13      30.14R
PAGOSA SPRINGS FAIR      48  10  21 SW10      30.07R
TELLURIDE      NOT AVBL
WOLF CREEK PAS FAIR      28  12  50 SW12G20   30.17R WCI  18
$$

COZ009-010-012-014-032>034-037-058>063-211800-
...CENTRAL COLORADO...

CITY           SKY/WX    TMP DP  RH WIND       PRES   REMARKS
ASPEN          FAIR      34  24  67 N6        30.15R WCI  29
BUENA VISTA    FAIR      40  10  29 N13G24    30.06R
COPPER MTN     CLOUDY    19  14  79 MISG      30.09R
BERTHOUD PASS  CLOUDY     9  -2  61 NW35G47   30.00R WCI -15
COTTONWOOD PAS FAIR      34   7  32 SW17G31   30.07R WCI  23
GUNNISON       FAIR      38  15  39 VRB6      30.14R
KREMMLING      PTSUNNY   36  23  60 NW9G20    30.16R
LEADVILLE      FLURRIES  23  11  60 W15       30.10R WCI  10
MONARCH PASS     N/A     18  14  86 MISG      30.14R
SALIDA         FAIR      45  15  30 SW14G25   30.13R
SUNLIGHT       PTSUNNY   18  16  93 MISG      30.20R
WILKERSON PASS FAIR      23   7  50 NW7       30.10R WCI  15
$$

COZ069>075-211800-
...SAN LUIS VALLEY/SANGRE DE CRISTO MOUNTAINS...

CITY           SKY/WX    TMP DP  RH WIND       PRES   REMARKS
ALAMOSA        FAIR      48  18  30 NE14G20   30.03S
DEL NORTE      FAIR      46  15  27 W5        30.03S
LA VETA PASS   FAIR      39  21  48 S21G30    30.17R
SAGUACHE       FAIR      41  19  42 NW24G31   30.09R
$$

COZ035-036-038>040-211800-
...NORTHERN COLORADO FRONT RANGE...

CITY           SKY/WX    TMP DP  RH WIND       PRES   REMARKS
DENVER INTL AP FAIR      50   8  18 NW20G29   30.02R
DMNS CITY PARK   N/A     47  10  22 W26G35    30.04R
AURORA         MOSUNNY   48  12  23 W16       30.03R
FRONT RANGE AP MOSUNNY   52  10  19 W20G28    30.02R
ERIE MUNI ARPT FAIR      50  10  19 W22G33    30.09R
BOULDER MUN AP FAIR      48  12  23 W22G28    30.04R
CENTENNIAL     FAIR      46   9  22 NW24G36   30.03R
BROOMFIELD     MOSUNNY   48  12  23 W20G28    30.04R
FORT COLLINS   FAIR      50  15  24 NW24G30   30.04R
LONGMONT       FAIR      54  11  18 SW7       30.04R
$$

COZ041-046-047-076>085-087-088-211800-
...PIKES PEAK/PALMER DIVIDE AND SOUTHERN FOOTHILLS...

CITY           SKY/WX    TMP DP  RH WIND       PRES   REMARKS
COLO. SPRINGS  FAIR      50  14  23 N23G30    30.00R
A. F. ACADEMY  FAIR      47  14  26 NE16      30.01R
SCHRIEVER AFB  FAIR      48  13  24 N21       30.00R
CHEYENNE MTN   FAIR      43  15  31 N12G22    29.95R
ELLICOTT         N/A    N/A N/A N/A N22       29.99R
FALCON         FAIR      46  12  25 NW16G28   30.02R
FORT CARSON    FAIR      53  17  24 N16G25    29.97R
LIMON          FAIR      50  18  28 NW31G37   29.98R
MONUMENT HILL  FAIR      41  14  33 N15G23    30.05R
CANON CITY     FAIR      59  18  20 NW21G28   29.96R
WALSENBURG     CLOUDY    52  32  46 E14       29.98R
TRINIDAD       FAIR      51  31  46 NE12      30.01R
$$

COZ042>045-048>051-090-091-211800-
...NORTHEAST COLORADO...

CITY           SKY/WX    TMP DP  RH WIND       PRES   REMARKS
GREELEY ARPT   FAIR      51  16  24 NW35G40   29.99R
AKRON          FAIR      51  19  28 NW28G39   29.97R
BURLINGTON     FAIR      51  24  34 NW23G40   29.95R
WRAY           FAIR      54  27  35 NW24G32   29.93R
YUMA           NOT AVBL
STERLING       NOT AVBL
HOLYOKE        FAIR      55  27  33 NW23G33   29.92R
FORT MORGAN    FAIR      52  14  22 W23G40    30.00R
$$

COZ086-089-092>099-211800-
...SOUTHEAST COLORADO...

CITY           SKY/WX    TMP DP  RH WIND       PRES   REMARKS
PUEBLO         PTSUNNY   57  19  22 N14       29.97R
LA JUNTA       PTSUNNY   58  19  22 N16G22    29.97R
LAMAR          PTSUNNY   57  24  28 N15G24    29.94R
SPRINGFIELD      N/A     53  31  42 N26G32    29.95R
$$



USA.gov is the U.S. government's official web portal to all federal, state and local government web resources and services.